Location: ??????
(38.0131°N, 23.7723°E)
Time: 05:19:26
(UTC+00:00)

Okean-O - Pass Details

Date: 17 October 2021
Orbit: 638 x 640 km, 98.2° (Epoch: 28 November)

Event Time Altitude Azimuth Distance (km) Brightness Sun altitude
Exits shadow 16:53:55 23° 85° (E) 1,355 3.7 -14.4°
Maximum altitude 16:54:42 24° 68° (ENE) 1,313 3.7 -14.6°
Drops below altitude 10° 16:58:17 10° 15° (NNE) 2,039 5.1 -15.3°
Sets 17:00:48 0° 2° (N) 2,952 6.0 -15.8°
